Kenai, AK

6:15 AM AKDT on September 26, 2016 (GMT -0800)
Kenai Municipal

Weather History for PAEN - January, 2014

Change the Weather History Date:

Monday, January 20, 2014

  Actual Average Record
Temperature  
Mean Temperature 38 °F -  
Max Temperature 42 °F 22 °F 46 °F (1961)
Min Temperature 33 °F 5 °F -36 °F (1951)
Degree Days  
Heating Degree Days 28    
Moisture  
Dew Point 30 °F    
Average Humidity 74    
Maximum Humidity 82    
Minimum Humidity 60    
Precipitation  
Precipitation 0.00 in - - ()
Sea Level Pressure  
Sea Level Pressure 29.72 in    
Wind  
Wind Speed 13 mph (NNE)    
Max Wind Speed 21 mph    
Max Gust Speed -    
Visibility 10 miles    
Events      
Averages and records for this station are not official NWS values.
T = Trace of Precipitation, MM = Missing Value Source: NWS Daily Summary

Daily Weather History Graph

Daily Weather History Graph

Search for Another Location

Airport or City:

Trip Planner

Search our weather history database for the weather conditions in past years. The results will help you decide how hot, cold, wet, or windy it might be!

Date:

Astronomy

Jan. 20, 2014 Rise Set
Actual Time 9:47 AM AKST 4:45 PM AKST
Civil Twilight 8:55 AM AKST 5:37 PM AKST
Nautical Twilight 8:01 AM AKST 6:31 PM AKST
Astronomical Twilight 7:10 AM AKST 7:22 PM AKST
Moon 11:01 PM AKST (1/20) 10:28 AM AKST (1/20)
Length of Visible Light 8h 42m
Length of Day
6h 57m
Waning Gibbous, 81% of the Moon is Illuminated
Jan 20
Waning Gibbous
Jan 23
Last Quarter
Jan 30
New
Feb 6
First Quarter
Feb 14
Full

Hourly Weather History & Observations

Time (AKST) Temp. Windchill Dew Point Humidity Pressure Visibility Wind Dir Wind Speed Gust Speed Precip Events Conditions
12:53 AM 34.0 °F 25.0 °F 28.9 °F 82% 29.75 in 10.0 mi NNE 12.7 mph - N/A   Overcast
1:53 AM 34.0 °F 25.0 °F 28.9 °F 82% 29.74 in 10.0 mi NNE 12.7 mph - N/A   Overcast
3:53 AM 35.1 °F 27.4 °F 30.0 °F 82% 29.75 in 10.0 mi North 10.4 mph - N/A   Overcast
4:53 AM 35.1 °F 28.6 °F 28.9 °F 78% 29.76 in 10.0 mi North 8.1 mph - N/A   Clear
5:53 AM 35.1 °F 26.9 °F 28.9 °F 78% 29.76 in 10.0 mi North 11.5 mph - N/A   Clear
6:53 AM 33.1 °F 26.1 °F 28.0 °F 82% 29.76 in 10.0 mi NE 8.1 mph - N/A   Clear
7:53 AM 42.1 °F 35.7 °F 30.0 °F 62% 29.78 in 10.0 mi ENE 11.5 mph - N/A   Clear
8:53 AM 37.9 °F 30.5 °F 28.9 °F 70% 29.79 in 10.0 mi NNE 11.5 mph - N/A   Clear
9:53 AM 36.0 °F 30.3 °F 28.0 °F 73% 29.80 in 10.0 mi NNE 6.9 mph - N/A   Clear
10:53 AM 41.0 °F 35.2 °F 28.0 °F 60% 29.80 in 10.0 mi NE 9.2 mph - N/A   Clear
11:53 AM 41.0 °F 32.2 °F 28.0 °F 60% 29.79 in 10.0 mi NE 18.4 mph - N/A   Clear
12:53 PM 41.0 °F 31.9 °F 30.0 °F 65% 29.78 in 10.0 mi NE 19.6 mph - N/A   Clear
1:53 PM 39.0 °F 29.6 °F 30.9 °F 73% 29.75 in 10.0 mi NNE 18.4 mph - N/A   Clear
2:53 PM 39.9 °F 30.5 °F 32.0 °F 73% 29.73 in 10.0 mi NNE 19.6 mph - N/A   Partly Cloudy
3:53 PM 39.9 °F 30.2 °F 32.0 °F 73% 29.70 in 10.0 mi NE 20.7 mph - N/A   Clear
4:53 PM 37.9 °F 28.9 °F 32.0 °F 79% 29.69 in 10.0 mi NNE 16.1 mph - N/A   Mostly Cloudy
5:53 PM 39.0 °F 30.3 °F 32.0 °F 76% 29.68 in 10.0 mi NNE 16.1 mph - N/A   Overcast
6:53 PM 39.9 °F 32.1 °F 32.0 °F 73% 29.67 in 10.0 mi NE 13.8 mph - N/A   Overcast
7:53 PM 39.9 °F 32.9 °F 32.0 °F 73% 29.66 in 10.0 mi NNE 11.5 mph - N/A   Mostly Cloudy
8:53 PM 37.9 °F 29.2 °F 32.0 °F 79% 29.63 in 10.0 mi NNE 15.0 mph - N/A   Overcast
9:53 PM 39.0 °F 30.6 °F 32.0 °F 76% 29.62 in 10.0 mi NNE 15.0 mph - N/A   Overcast
10:53 PM 39.9 °F 31.4 °F 30.9 °F 70% 29.60 in 10.0 mi NE 16.1 mph - N/A   Overcast
11:53 PM 39.9 °F 31.4 °F 32.0 °F 73% 29.56 in 10.0 mi NE 16.1 mph - N/A   Mostly Cloudy